Zurück zum Katalog

FENGYUN 1C DEB

LostPO
NORAD 32329·DEBRIS·🇨🇳 China

Gestartet May 10, 1999 von Taiyuan Satellite Launch Center

Loading…

Nächste Überflüge (nächste 24 Stunden)

TLE

VeraltetSource: Space-Track

Epoche: Aug 6, 2024, 12:14 UTC

1 32329U 99025CXW 24219.51038080  .00010021  00000-0  38951-2 0  9999
2 32329  99.9338 320.0680 0048623 229.7932 129.8986 14.29411623508928

Verfolge FENGYUN 1C DEB in Echtzeit mit AllMySat

Download on the App Store